Decatur, AL

1:36 AM CDT on June 26, 2017 (GMT -0500)
Pryor Regional

Weather History for KDCU - April, 2014

Change the Weather History Date:

Thursday, April 10, 2014

  Actual Average Record
Temperature  
Mean Temperature 57 °F -  
Max Temperature 77 °F 67 °F 88 °F (2001)
Min Temperature 39 °F 43 °F 28 °F (1960)
Degree Days  
Heating Degree Days 8    
Growing Degree Days 7 (Base 50)    
Moisture  
Dew Point 39 °F    
Average Humidity 54    
Maximum Humidity 93    
Minimum Humidity 25    
Precipitation  
Precipitation 0.00 in - - ()
Sea Level Pressure  
Sea Level Pressure 30.15 in    
Wind  
Wind Speed 7 mph (South)    
Max Wind Speed 18 mph    
Max Gust Speed 23 mph    
Visibility 10 miles    
Events      
Averages and records for this station are not official NWS values.
T = Trace of Precipitation, MM = Missing Value Source: NWS Daily Summary

Daily Weather History Graph

Daily Weather History Graph

Search for Another Location

Airport or City:

Trip Planner

Search our weather history database for the weather conditions in past years. The results will help you decide how hot, cold, wet, or windy it might be!

Date:

Astronomy

Apr. 10, 2014 Rise Set
Actual Time 6:22 AM CDT 7:15 PM CDT
Civil Twilight 5:56 AM CDT 7:41 PM CDT
Nautical Twilight 5:26 AM CDT 8:12 PM CDT
Astronomical Twilight 4:55 AM CDT 8:43 PM CDT
Moon 3:09 PM CDT (4/10) 3:34 AM CDT (4/10)
Length of Visible Light 13h 44m
Length of Day
12h 53m
Waxing Gibbous, 80% of the Moon is Illuminated
Apr 10
Waxing Gibbous
Apr 15
Full
Apr 22
Last Quarter
Apr 29
New
May 6
First Quarter

Hourly Weather History & Observations

Time (CDT) Temp. Windchill Dew Point Humidity Pressure Visibility Wind Dir Wind Speed Gust Speed Precip Events Conditions
12:53 AM 45.0 °F 42.6 °F 39.9 °F 82% 30.16 in 10.0 mi SE 4.6 mph - N/A   Clear
1:53 AM 44.1 °F - 39.0 °F 82% 30.16 in 10.0 mi Calm Calm - N/A   Clear
2:53 AM 45.0 °F - 39.0 °F 80% 30.16 in 10.0 mi Calm Calm - N/A   Clear
3:53 AM 42.1 °F - 39.0 °F 89% 30.17 in 10.0 mi Calm Calm - N/A   Clear
4:53 AM 39.9 °F 36.7 °F 37.9 °F 93% 30.18 in 10.0 mi SE 4.6 mph - N/A   Clear
5:53 AM 41.0 °F 38.0 °F 39.0 °F 93% 30.19 in 10.0 mi SE 4.6 mph - N/A   Clear
6:53 AM 41.0 °F 39.0 °F 39.0 °F 93% 30.21 in 10.0 mi ESE 3.5 mph - N/A   Clear
7:53 AM 50.0 °F - 43.0 °F 77% 30.21 in 10.0 mi SE 5.8 mph - N/A   Clear
9:53 AM 64.0 °F - 41.0 °F 43% 30.22 in 10.0 mi South 11.5 mph - N/A   Clear
10:53 AM 68.0 °F - 39.0 °F 35% 30.22 in 10.0 mi SSW 15.0 mph 20.7 mph N/A   Clear
11:53 AM 71.1 °F - 37.9 °F 30% 30.20 in 10.0 mi South 16.1 mph - N/A   Clear
12:53 PM 73.0 °F - 37.9 °F 28% 30.17 in 10.0 mi South 18.4 mph 23.0 mph N/A   Clear
1:53 PM 75.0 °F - 39.0 °F 27% 30.15 in 10.0 mi South 16.1 mph 20.7 mph N/A   Clear
2:53 PM 75.9 °F - 37.9 °F 25% 30.13 in 10.0 mi South 13.8 mph - N/A   Clear
3:53 PM 75.9 °F - 37.9 °F 25% 30.10 in 10.0 mi SSW 13.8 mph 23.0 mph N/A   Clear
4:53 PM 75.9 °F - 39.0 °F 26% 30.08 in 10.0 mi SSW 12.7 mph - N/A   Clear
5:53 PM 75.0 °F - 37.9 °F 26% 30.08 in 10.0 mi SSW 13.8 mph - N/A   Clear
6:53 PM 71.1 °F - 39.9 °F 32% 30.09 in 10.0 mi SSW 10.4 mph - N/A   Clear
7:53 PM 66.9 °F - 39.0 °F 36% 30.09 in 10.0 mi South 10.4 mph - N/A   Clear
8:53 PM 64.0 °F - 39.0 °F 40% 30.12 in 10.0 mi SSW 8.1 mph - N/A   Clear
9:53 PM 55.9 °F - 42.1 °F 60% 30.13 in 10.0 mi SSE 9.2 mph - N/A   Clear
10:53 PM 55.0 °F - 42.1 °F 62% 30.13 in 10.0 mi SSE 8.1 mph - N/A   Clear
11:53 PM 55.0 °F - 42.1 °F 62% 30.13 in 10.0 mi South 5.8 mph - N/A   Clear